User: anonymous   Login
Location: Crayja
(6.2254°N, 10.6273°W)
Time: 17:55:42
(UTC+00:00)
Language:

Cosmos 1943 - Orbit

View from above orbital plane
View from above orbital plane
View from above satellite
View from above satellite

Ground track
Ground track

The orbit data is extracted from the following two-line orbital elements,

1 19119U 88039A   20151.84436951 +.00000194 +00000-0 +12434-3 0  9999
2 19119 071.0030 356.4513 0012912 223.4262 222.0783 14.15150099654427
Epoch (UTC): 30 May 2020 20:15:53
Eccentricity: 0.0012912
inclination: 71.0030°
perigee height: 832 km
apogee height: 851 km
right ascension of ascending node: 356.4513°
argument of perigee: 223.4262°
revolutions per day: 14.15150099
mean anomaly at epoch: 222.0783°
orbit number at epoch: 65442

The dashed part of the orbit path shows where the satellite is in the earth's shadow,  

DLR